Temp
76 71 67 72 76 76 75 71 70 75 80 75 73 74 78 83 83 83 84 85 86 87 91 92 93 93 92 91 89 88 87 87 87 89 88 87 84 87 89 91 89 89 88 86
72 65 75 78 77 73 71 67 68 74 78 74 72 72 77 80 81 83 83 84 85 87 89 89 90 89 88 87 87 86 86 85 85 88 88 90 89 90 91 91 89 90 89 85
67 73 76 74 72 68 69 66 67 68 74 75 71 68 72 79 82 83 84 85 85 85 85 84 85 85 85 85 85 85 85 86 86 85 87 89 89 89 90 90 88 87 88 86
72 77 73 70 69 71 63 74 71 68 65 60 74 58 70 76 77 80 81 82 83 84 84 83 83 83 84 84 86 85 84 83 85 85 83 80 84 86 91 91 92 90 87 86
69 71 70 68 70 74 67 75 71 69 65 64 65 62 68 76 73 77 79 82 82 83 82 82 83 83 85 85 85 84 84 84 83 82 81 82 82 88 91 92 87 84 84 85
71 79 74 73 76 75 75 71 69 68 66 55 63 63 64 70 73 76 81 80 81 82 82 82 83 83 83 86 85 83 81 81 82 82 81 79 78 81 86 87 89 90 85 80
65 68 75 76 69 74 71 63 53 52 54 53 68 64 66 74 77 76 76 78 79 80 80 80 80 81 81 81 82 83 81 79 80 81 81 80 79 80 79 82 88 88 87 80
56 53 68 74 70 66 67 64 52 41 46 54 65 56 65 76 77 78 79 77 77 77 79 79 79 80 81 81 80 81 80 79 80 79 80 81 81 83 84 82 81 89 90 88
53 54 70 72 73 71 64 59 67 56 57 51 57 64 72 77 75 74 74 75 74 76 77 77 80 80 79 79 79 79 79 79 79 79 79 79 81 80 82 80 78 78 80 89
58 48 64 68 69 70 64 68 53 55 39 40 52 56 58 65 68 72 71 73 74 76 76 78 78 78 79 79 79 80 80 78 79 79 80 80 81 82 81 80 78 78 79 79
59 49 53 62 59 59 61 58 59 57 52 40 40 50 68 65 68 68 71 74 74 75 77 77 78 79 79 80 81 79 79 78 78 78 76 76 80 82 80 77 78 78 77 77
61 53 47 53 64 68 65 61 58 44 44 50 46 47 69 70 71 70 71 73 76 77 77 78 78 78 78 78 78 77 77 74 77 76 75 68 68 79 78 76 78 77 75 78
59 47 44 50 58 62 58 60 59 57 55 48 44 50 69 68 68 71 72 74 75 76 76 76 76 76 76 76 77 77 76 76 73 76 74 68 68 71 76 77 79 80 80 79
58 53 46 44 48 49 47 53 58 55 46 47 49 53 62 66 68 72 72 74 74 73 74 74 73 74 76 76 76 76 75 76 75 74 73 69 68 72 71 71 78 76 79 81
52 44 51 53 55 55 55 54 56 53 54 47 53 54 60 67 68 71 73 73 71 72 71 70 69 72 74 74 74 74 75 75 75 73 71 69 67 69 70 73 76 77 73 77
50 39 49 46 52 54 52 56 58 58 58 58 58 57 68 71 73 71 67 68 68 69 68 71 71 71 71 72 72 72 72 72 73 72 72 71 63 62 64 68 68 75 77 72
42 43 40 40 52 52 46 55 57 59 62 60 54 61 67 66 65 64 65 66 66 67 68 68 67 67 68 69 69 69 71 72 71 71 72 72 67 59 58 62 67 71 69 74
39 40 40 41 46 34 54 62 61 57 58 62 61 62 64 63 64 65 67 67 65 64 63 62 63 63 64 65 66 65 67 68 70 69 70 71 70 65 60 59 62 66 69 68
42 40 37 36 38 47 53 57 54 52 52 61 57 59 61 61 59 61 67 62 59 57 57 58 59 59 59 58 59 61 62 63 64 68 69 71 71 68 63 60 57 60 66 65
46 43 36 39 33 33 47 56 61 59 46 57 56 55 55 58 49 56 59 58 57 57 56 54 54 54 53 53 55 56 57 57 60 64 67 71 71 67 68 64 60 57 62 66
37 38 36 38 34 45 55 58 61 42 43 55 57 57 55 51 54 55 57 57 56 53 49 48 47 48 49 51 51 49 52 53 56 61 66 66 70 66 66 65 65 61 58 63
38 38 37 40 34 33 58 57 45 52 56 57 56 56 53 54 54 54 54 53 49 45 45 46 45 45 47 50 50 51 48 53 54 56 60 62 64 68 65 65 63 62 59 58
42 47 39 41 44 57 57 57 58 56 53 56 55 56 54 49 49 53 50 45 44 43 42 43 41 41 44 46 47 45 50 55 54 52 55 56 60 63 65 61 64 62 60 57
53 57 48 49 55 54 58 62 58 57 57 57 56 53 50 51 51 45 43 41 40 40 41 42 39 38 40 45 48 49 49 51 52 50 51 51 56 58 60 63 65 62 61 60
54 55 52 53 54 56 59 58 56 58 57 56 55 54 53 50 43 41 39 38 38 38 40 39 37 37 39 43 45 49 53 54 51 51 49 48 55 56 57 60 61 65 67 63
57 53 45 42 55 50 53 56 59 56 55 54 53 51 52 44 40 39 37 37 36 36 37 37 38 38 40 43 45 48 51 50 50 47 50 51 53 57 58 58 61 52 48 47
MSLP
1004.46 1003.66 1002.38 1001.90 1001.56 1001.13 1000.57 1000.58 999.97 999.86 1000.38 1000.88 1000.91 1000.71 1000.45 1000.25 1000.37 1000.42 1000.47 1000.50 1000.59 1000.81 1001.10 1001.45 1001.82 1002.19 1002.73 1003.11 1003.54 1003.84 1003.94 1004.04 1004.23 1003.69 1003.75 1003.93 1004.04 1004.31 1004.30 1004.57 1004.65 1004.82 1005.60 1006.12
1003.47 1002.78 1002.17 1001.76 1001.49 1001.59 1001.68 1001.52 1001.09 1000.93 1000.90 1001.29 1001.16 1000.59 1000.34 1000.22 1000.00 1000.07 1000.12 1000.19 1000.27 1000.54 1000.81 1001.29 1001.88 1002.59 1003.06 1003.30 1003.43 1003.56 1003.72 1003.78 1003.73 1003.50 1003.21 1003.01 1003.09 1003.17 1003.20 1003.38 1003.80 1004.32 1004.64 1005.54
1002.59 1001.64 1002.03 1002.12 1001.79 1002.15 1001.93 1001.73 1001.34 1001.08 1000.91 1001.03 1001.14 1000.35 999.92 999.46 999.33 999.59 1000.01 1000.20 1000.35 1000.56 1001.00 1001.78 1002.67 1003.10 1003.40 1003.50 1003.54 1003.21 1002.98 1003.15 1003.34 1003.48 1002.98 1002.45 1002.43 1002.47 1002.06 1002.21 1002.86 1003.44 1003.84 1004.58
1002.07 1001.91 1001.83 1002.23 1001.63 1001.89 1001.52 1001.53 1001.68 1001.67 1001.65 1000.62 1000.01 998.75 998.38 998.31 998.38 998.68 999.35 999.86 1000.18 1000.52 1001.55 1002.47 1003.01 1003.19 1003.32 1003.52 1003.33 1003.13 1002.94 1002.70 1002.62 1002.76 1002.69 1002.45 1001.75 1001.02 1000.81 1001.14 1001.29 1001.92 1002.84 1003.81
1001.70 1001.63 1001.65 1001.44 1001.52 1001.62 1001.49 1001.43 1001.55 1001.71 1001.48 1000.92 1000.16 998.97 997.73 997.51 997.38 997.38 998.60 999.26 999.96 1000.93 1001.81 1002.57 1002.96 1003.00 1003.14 1003.18 1002.92 1002.92 1002.77 1002.49 1002.20 1002.09 1002.30 1002.03 1001.32 1000.83 1000.44 1000.40 1000.50 1001.05 1001.78 1002.53
1002.30 1001.74 1001.93 1001.29 1001.33 1001.61 1001.82 1001.85 1002.00 1001.82 1001.18 999.83 999.26 998.46 997.12 996.64 996.66 996.91 997.91 999.18 1000.21 1001.16 1001.84 1002.65 1002.93 1003.14 1002.99 1002.74 1002.62 1002.80 1002.77 1002.41 1002.13 1001.79 1001.65 1001.43 1001.16 1000.54 999.87 999.53 999.66 999.72 1000.62 1001.47
1002.89 1002.18 1001.85 1002.02 1001.72 1001.69 1002.15 1002.24 1001.42 1000.74 999.81 998.35 997.99 997.05 996.36 996.53 997.06 998.10 998.79 999.61 1000.81 1001.60 1002.27 1002.61 1002.93 1002.86 1002.76 1002.78 1002.48 1002.26 1002.21 1002.13 1001.92 1001.50 1001.01 1000.77 1000.45 1000.19 999.82 999.55 998.85 998.60 998.75 999.68
1002.79 1002.05 1001.55 1001.32 1001.33 1001.52 1001.29 1001.58 1001.66 1001.01 1000.31 999.18 998.45 997.12 996.49 997.11 998.07 998.72 999.38 1000.31 1001.35 1002.04 1002.22 1002.52 1002.78 1002.74 1002.57 1002.44 1002.46 1002.13 1001.93 1001.58 1001.33 1001.01 1000.44 999.95 999.69 999.37 998.87 998.84 998.62 997.94 997.96 997.46
1004.07 1003.20 1002.48 1002.52 1002.22 1002.20 1002.08 1001.90 1002.21 1001.99 1001.98 1000.70 999.70 998.23 997.25 996.85 997.45 998.95 999.91 1000.53 1001.28 1001.78 1001.97 1002.47 1002.28 1002.22 1002.22 1002.14 1002.05 1001.82 1001.58 1001.31 1000.88 1000.45 999.90 999.34 998.83 998.52 998.25 997.78 998.08 998.20 997.49 994.57
1005.97 1005.36 1003.99 1003.06 1003.42 1003.12 1003.10 1003.24 1003.39 1003.24 1002.72 1001.12 999.82 998.47 997.65 997.95 998.30 998.83 999.73 1000.35 1000.85 1001.47 1001.87 1001.87 1001.97 1001.95 1001.99 1001.88 1001.59 1001.11 1000.89 1000.97 1000.38 1000.02 999.31 998.61 998.05 997.68 997.50 997.29 997.39 997.70 997.19 994.46
1007.29 1007.62 1005.45 1004.43 1003.59 1003.04 1002.88 1003.46 1003.49 1003.72 1003.54 1002.62 1001.22 999.74 998.71 999.35 999.59 999.84 1000.04 1000.16 1000.76 1001.15 1001.09 1001.29 1001.44 1001.49 1001.66 1001.51 1001.14 1000.84 1000.74 1000.46 1000.28 999.92 999.71 998.75 997.54 996.94 996.73 997.01 996.70 996.56 996.65 995.44
1007.33 1007.26 1005.97 1004.57 1003.77 1003.54 1003.18 1003.04 1003.73 1004.37 1003.94 1003.00 1002.35 1000.60 1000.20 999.74 999.69 1000.14 1000.45 1000.53 1000.33 1000.13 1000.30 1000.70 1000.97 1001.16 1001.37 1001.32 1000.96 1001.08 1000.61 1000.74 1000.18 1000.24 999.87 999.16 998.64 997.08 996.69 996.70 996.12 996.25 996.15 995.71
1008.14 1008.04 1006.38 1004.39 1003.63 1003.54 1003.56 1003.70 1003.87 1004.19 1004.04 1002.75 1002.03 1000.04 1000.05 1000.39 1000.04 999.81 999.25 999.45 999.60 999.68 999.97 1000.08 1000.61 1000.70 1000.95 1001.03 1000.71 1000.69 1000.68 1000.63 1000.49 1000.11 1000.05 999.53 999.43 998.59 997.36 996.68 995.94 995.95 996.10 995.77
1009.52 1008.37 1007.55 1005.58 1004.65 1005.49 1004.93 1004.57 1004.25 1004.00 1003.30 1002.50 1001.41 1000.38 1000.08 999.40 998.80 998.38 998.75 998.91 999.35 999.62 999.74 1000.01 1000.39 1000.50 1000.47 1000.62 1000.62 1000.37 1000.63 1000.59 1000.52 1000.33 1000.11 1000.09 1000.00 999.34 998.62 997.85 996.91 996.56 996.32 996.10
1010.41 1009.62 1008.35 1007.02 1005.93 1005.21 1004.40 1003.91 1003.60 1003.05 1002.66 1002.05 1001.06 1000.11 999.54 998.99 998.67 998.63 998.64 998.72 999.14 999.24 999.61 1000.35 1000.65 1000.44 1000.05 1000.21 1000.45 1000.43 1000.09 1000.27 1000.43 1000.35 1000.13 1000.20 1000.06 1000.00 999.25 998.56 996.80 997.30 995.92 996.82
1011.40 1010.84 1009.38 1007.53 1006.49 1005.37 1004.01 1003.33 1002.70 1002.18 1001.76 1000.95 1000.39 999.70 999.70 999.11 998.80 998.69 999.27 999.95 999.91 999.78 1000.45 1000.38 1000.18 1000.16 1000.06 1000.06 1000.02 1000.10 1000.12 1000.13 1000.22 1000.02 999.81 999.88 1000.65 1000.05 999.95 999.89 999.10 997.79 997.32 996.65
1011.94 1011.28 1010.09 1007.70 1006.12 1004.98 1003.52 1002.42 1001.88 1001.34 1000.99 1000.71 1000.10 999.68 999.77 999.53 999.58 1000.21 1000.63 1000.57 1000.49 1000.63 1000.68 1000.77 1000.81 1000.75 1000.67 1000.15 1000.22 1000.04 999.75 999.78 999.87 999.73 999.35 999.14 999.87 999.91 1000.08 1000.40 999.82 998.45 998.14 997.84
1012.36 1011.89 1010.86 1008.52 1006.85 1004.79 1002.76 1002.20 1002.19 1002.19 1002.00 1001.46 1001.09 1000.88 1000.66 1001.01 1001.18 1001.29 1001.26 1001.03 1001.22 1001.64 1001.80 1002.16 1002.04 1001.84 1001.63 1001.21 1000.95 1000.55 1000.02 999.53 999.09 998.96 998.85 998.49 998.58 999.40 999.90 999.99 1000.14 999.77 999.27 999.06
1012.30 1012.25 1010.96 1009.13 1006.99 1004.88 1003.21 1002.64 1002.70 1002.82 1002.58 1002.54 1002.37 1002.37 1002.40 1002.43 1002.37 1001.74 1001.78 1002.29 1002.98 1003.34 1003.37 1003.27 1003.07 1002.66 1002.07 1001.70 1001.35 1000.92 1000.04 999.47 999.09 998.27 997.87 997.86 997.62 997.92 998.99 999.59 999.68 999.80 1000.00 999.52
1011.18 1011.78 1011.42 1009.22 1007.45 1005.16 1004.23 1003.96 1003.92 1004.04 1003.17 1003.79 1004.36 1004.07 1003.76 1003.53 1002.66 1001.90 1002.85 1003.42 1003.37 1003.36 1003.49 1003.30 1002.93 1002.51 1001.92 1001.66 1001.41 1000.32 999.50 999.11 998.48 998.07 997.42 996.92 996.93 996.96 997.12 998.37 999.03 999.31 999.93 999.91
1010.23 1010.50 1009.89 1008.72 1007.52 1005.38 1004.66 1004.48 1004.51 1004.38 1004.95 1004.90 1004.81 1004.74 1004.69 1004.57 1004.43 1003.71 1003.56 1003.24 1003.33 1003.30 1003.32 1003.13 1002.90 1002.02 1001.13 1000.86 1000.47 999.82 999.25 998.40 998.24 997.81 997.09 996.65 996.15 996.30 996.77 997.47 998.27 998.83 999.42 999.84
1008.63 1008.44 1008.31 1007.92 1007.04 1005.75 1005.26 1005.03 1005.33 1005.63 1005.51 1005.53 1005.38 1005.44 1005.29 1005.02 1004.46 1004.06 1003.64 1003.14 1003.05 1002.97 1002.66 1002.32 1001.56 1000.77 1000.17 999.70 999.22 998.20 997.73 998.10 997.65 997.46 996.76 996.24 996.03 995.66 996.16 996.80 997.53 998.09 998.63 998.82
1007.12 1007.21 1007.58 1007.29 1005.89 1005.34 1005.77 1005.48 1005.84 1006.29 1006.36 1006.08 1006.14 1005.88 1005.77 1005.47 1004.81 1003.75 1003.38 1003.47 1003.01 1002.62 1002.13 1001.57 1000.80 999.94 999.31 998.73 998.26 997.41 996.80 996.28 996.35 996.93 996.32 996.08 995.88 995.66 995.55 996.10 996.57 997.34 997.94 998.27
1006.24 1006.34 1006.54 1006.15 1005.39 1005.86 1005.51 1005.53 1006.29 1006.53 1006.63 1006.51 1006.48 1006.42 1006.21 1005.13 1004.62 1004.32 1003.86 1003.38 1002.80 1002.28 1001.42 1000.77 1000.05 999.25 998.38 997.82 996.86 996.00 996.01 995.83 995.34 995.86 995.69 996.07 995.75 995.47 995.42 995.54 995.83 996.47 996.88 997.48
1006.21 1006.33 1005.82 1005.55 1005.85 1006.01 1005.59 1006.17 1006.63 1006.67 1006.82 1006.62 1006.30 1006.20 1005.73 1005.32 1005.23 1004.71 1003.95 1003.40 1002.62 1001.75 1000.82 1000.18 999.32 998.42 997.50 996.84 996.00 995.36 994.48 994.54 994.23 994.61 994.89 995.41 995.20 995.12 995.50 995.30 995.48 995.58 996.03 996.60
1006.08 1005.95 1006.79 1006.87 1006.79 1007.37 1007.10 1007.23 1006.70 1006.37 1006.40 1006.44 1006.16 1005.63 1005.53 1005.96 1005.35 1004.81 1004.05 1003.34 1002.33 1001.24 1000.25 999.20 998.36 997.54 996.59 995.82 995.05 994.38 994.00 994.10 993.81 994.42 994.23 994.72 994.81 994.43 994.87 995.01 995.18 995.49 995.95 996.46
Wind_Speed
14 13 16 17 17 18 16 13 14 8 9 9 13 16 16 14 12 16 15 15 13 12 11 10 11 10 10 10 9 8 9 7 9 10 11 12 13 14 12 12 15 15 15 18
13 16 16 14 11 10 13 15 16 14 12 12 16 19 16 17 16 18 16 16 14 12 10 8 9 10 11 12 12 11 9 8 7 10 10 11 10 13 13 13 15 14 15 17
18 12 7 12 13 14 15 16 15 15 12 11 16 20 21 21 24 18 13 12 13 9 8 8 11 12 13 14 14 14 12 9 9 9 10 10 12 12 13 13 12 15 16 17
16 16 13 11 16 14 16 15 15 15 14 14 14 13 15 12 12 16 15 11 13 6 6 9 10 12 11 12 14 14 14 14 12 10 12 14 14 14 14 13 13 14 19 18
14 15 15 19 17 14 15 12 11 12 16 18 18 15 14 14 17 14 9 16 2 9 5 10 13 14 14 15 12 14 12 13 14 13 12 13 15 14 13 13 15 15 15 19
18 7 7 12 12 13 10 11 14 17 16 18 19 19 16 17 10 5 11 2 7 10 9 11 12 13 14 15 12 12 14 12 13 13 14 15 18 17 14 15 14 13 13 14
16 19 16 13 14 13 13 12 12 15 15 17 18 18 13 6 6 7 9 9 9 10 9 10 12 14 13 15 16 13 14 14 14 15 15 17 18 18 20 18 14 17 14 12
13 14 18 15 22 17 17 16 12 15 16 18 21 17 9 4 4 8 9 6 7 9 11 13 15 17 15 15 15 17 16 17 15 17 16 16 17 14 14 18 16 13 14 15
10 18 16 9 11 10 13 17 14 18 18 18 18 25 22 21 13 4 6 9 9 12 12 15 17 15 16 16 16 13 13 16 17 17 15 15 16 16 16 18 16 15 14 20
9 17 20 16 5 13 13 13 13 8 9 19 14 15 8 8 4 5 3 9 10 12 12 16 16 16 14 16 17 14 12 15 15 17 15 15 16 15 16 15 14 17 20 19
9 6 9 17 13 15 11 13 13 15 13 12 16 11 6 2 8 13 16 11 11 14 16 14 15 14 13 14 14 14 13 11 16 13 15 17 15 15 11 13 15 16 17 19
7 7 14 19 17 16 17 16 13 9 13 13 13 14 18 18 6 7 9 13 19 15 14 12 13 12 11 15 11 13 10 13 9 11 14 8 16 13 10 11 12 12 13 12
5 7 10 12 19 20 15 14 15 16 18 22 20 14 7 10 11 17 17 14 16 15 17 10 10 12 12 14 11 11 11 12 9 11 9 5 8 13 11 9 10 9 10 9
7 13 14 13 5 3 7 13 15 15 14 17 19 24 21 21 23 17 17 16 14 15 15 12 12 15 12 12 15 12 12 10 12 10 9 7 11 11 8 9 7 6 7 8
5 13 19 20 21 21 22 22 21 22 23 24 23 27 23 22 22 21 20 13 16 16 16 17 16 17 13 14 14 17 13 11 12 12 10 5 4 13 14 5 11 8 7 6
5 5 17 19 20 22 23 21 22 23 24 24 25 24 22 22 19 16 18 17 19 19 16 20 20 20 20 19 15 14 15 14 14 15 13 8 9 3 10 19 6 11 8 3
4 6 6 15 18 16 17 18 18 15 17 18 18 17 17 19 18 18 16 17 20 23 24 23 22 21 22 19 15 17 16 16 16 17 17 10 8 6 7 11 16 9 10 7
4 11 6 8 9 13 9 1 7 10 14 15 15 15 15 14 15 20 23 25 22 22 21 21 21 23 21 20 19 18 18 19 19 18 17 18 12 12 11 11 13 15 9 9
14 7 5 4 8 13 17 5 4 8 16 16 17 19 21 24 24 25 23 18 20 22 23 23 22 23 22 21 22 25 21 19 19 21 20 18 16 14 14 14 13 10 11 8
15 14 6 5 6 5 5 3 5 10 15 13 17 18 21 23 20 18 26 26 24 24 21 22 23 22 23 20 21 23 23 20 21 21 20 19 18 13 15 14 13 12 9 10
5 5 10 12 7 8 7 7 8 10 6 21 20 22 23 22 18 27 26 29 26 23 23 19 22 22 21 21 20 22 22 23 17 19 22 18 17 13 10 12 13 12 11 13
8 5 5 8 5 6 8 9 9 14 18 19 22 20 23 25 27 31 31 29 26 25 24 23 21 20 20 20 22 24 21 22 17 18 22 19 16 11 10 13 13 13 11 9
5 3 2 4 4 6 4 6 8 7 15 17 21 22 25 27 28 29 28 26 23 23 20 19 18 19 18 18 18 24 20 21 17 18 21 17 14 12 11 12 14 12 13 11
3 1 5 7 2 9 12 11 12 17 20 21 22 24 22 28 30 28 24 23 22 21 21 19 18 19 19 18 20 19 17 18 16 16 16 12 15 10 9 8 9 10 10 11
5 6 8 10 8 13 8 17 19 19 18 21 22 23 27 24 25 23 23 22 22 21 20 17 17 17 18 17 19 18 16 18 13 15 10 9 15 11 11 10 9 10 12 11
5 4 3 3 12 10 16 18 20 20 21 21 22 26 25 20 22 24 21 20 20 20 19 18 17 16 16 16 16 16 14 15 12 14 12 11 12 11 10 9 11 14 7 2
Wind_Direction
200 225 223 235 221 259 295 289 298 265 231 243 264 276 272 267 254 251 250 252 250 245 249 253 253 255 281 297 304 293 306 288 282 227 233 213 228 224 227 225 227 209 196 199
222 233 254 242 268 263 261 258 258 261 266 260 269 268 268 262 256 255 264 266 261 259 252 278 320 325 306 297 299 293 290 272 263 264 233 246 222 233 221 221 216 223 201 202
235 232 198 271 243 240 240 252 264 266 277 260 265 263 251 245 243 249 268 267 269 273 282 335 317 312 306 300 300 292 289 280 264 264 274 254 232 243 232 222 210 214 212 202
246 241 241 251 242 232 246 239 242 255 262 261 266 283 274 277 259 215 216 236 242 251 319 309 299 296 307 303 300 297 294 292 278 244 252 262 265 242 235 233 218 207 203 210
239 228 242 236 238 237 256 276 274 269 267 277 265 262 265 251 247 232 229 236 243 267 299 293 305 309 311 302 308 309 303 294 267 268 259 268 255 252 246 241 233 213 201 204
262 275 281 254 234 240 282 265 260 263 262 256 260 260 266 260 279 269 199 286 332 320 308 300 303 309 296 310 303 312 312 297 286 278 268 259 259 263 249 234 236 215 205 205
258 256 252 228 259 242 223 255 264 257 243 256 256 246 257 315 286 220 276 312 312 303 300 294 309 306 316 309 307 306 306 308 303 290 265 257 255 256 249 249 244 231 207 193
273 255 229 244 224 251 256 246 258 269 274 289 296 280 271 293 266 280 263 287 283 288 287 304 307 299 304 316 313 301 310 301 306 299 287 258 254 250 245 239 242 250 236 197
281 275 283 242 296 281 261 253 298 295 284 277 277 279 275 268 212 233 245 239 256 261 295 297 291 299 303 303 306 305 306 312 302 305 290 270 255 246 255 251 236 236 256 223
299 294 279 273 255 253 259 290 278 258 272 265 266 279 272 344 300 265 254 270 283 283 286 289 306 300 307 304 297 280 311 311 308 312 298 275 255 244 246 246 242 240 242 270
249 253 275 299 243 259 241 246 248 265 255 266 281 273 315 261 316 306 306 302 302 289 282 310 302 303 304 298 306 311 309 322 325 325 312 321 277 263 242 251 243 230 232 247
251 263 262 261 266 270 268 271 271 246 269 250 264 266 276 284 285 291 277 267 262 291 296 285 296 301 298 299 303 309 314 323 326 327 327 334 333 293 268 243 234 227 216 229
249 228 265 252 234 230 244 265 269 262 267 258 268 269 233 234 264 242 266 289 303 312 297 287 287 287 305 301 300 305 313 311 316 325 340 336 318 310 284 255 203 192 204 209
281 266 259 276 290 163 284 279 278 276 263 269 264 283 281 282 285 299 302 296 306 302 291 280 282 286 292 300 303 299 301 306 314 302 306 354 342 326 295 267 220 201 196 204
330 264 261 266 278 284 287 282 273 263 261 262 276 277 282 300 306 300 296 315 308 294 325 327 305 295 292 289 293 296 284 293 302 297 283 278 331 335 336 281 275 250 145 191
179 267 275 268 261 265 268 271 269 269 274 275 280 283 285 281 290 304 355 326 306 313 306 302 309 303 303 299 284 279 288 293 291 287 282 259 275 315 329 323 289 229 214 154
255 247 259 257 256 262 262 259 264 276 264 268 276 301 328 312 330 334 320 301 306 308 306 305 308 312 313 298 290 290 284 278 275 276 278 249 251 234 224 287 312 294 294 258
220 271 244 275 288 261 287 62 271 280 287 287 308 300 326 330 319 324 313 306 312 321 325 317 312 312 307 307 298 296 291 287 275 266 264 271 202 225 231 226 270 310 313 281
201 222 266 258 250 287 279 328 18 335 309 323 4 351 338 331 321 299 297 341 323 312 310 304 295 293 292 290 288 287 280 273 274 268 260 255 264 199 217 226 223 248 292 298
197 222 242 274 250 270 88 170 342 322 277 24 345 325 322 318 298 305 332 315 308 304 302 300 294 284 276 278 282 277 269 265 258 262 265 256 246 249 205 214 217 219 255 270
176 203 227 235 255 273 30 0 325 270 345 329 330 325 321 313 306 308 306 308 303 302 302 296 292 283 283 278 272 275 275 264 264 266 258 264 246 234 223 200 216 208 202 237
198 211 199 224 240 252 22 328 341 340 327 325 321 320 314 307 308 308 305 304 312 301 295 289 285 278 276 272 272 265 254 260 268 263 250 250 265 236 196 206 202 212 204 216
257 243 269 240 273 293 84 327 329 353 325 321 319 318 320 312 300 303 314 306 306 303 300 293 288 287 283 275 276 266 262 262 238 250 257 254 251 258 226 196 205 202 200 204
272 205 250 289 284 357 333 343 1 343 328 322 322 314 305 304 315 308 306 309 308 306 301 298 293 286 284 279 275 266 246 263 240 245 232 244 243 238 231 235 208 207 202 195
285 256 275 282 19 335 356 346 342 321 321 315 315 314 314 317 312 312 310 310 304 303 301 299 291 288 285 283 277 272 263 272 245 248 215 241 246 214 244 225 237 222 219 207
296 349 329 300 348 342 318 330 313 325 326 327 318 320 321 325 316 314 309 306 305 304 303 299 293 287 285 284 276 268 262 250 232 237 220 216 234 218 214 240 227 238 248 69